Campo, CA

9:58 AM PDT on July 19, 2019 (GMT -0700)
Campo

Weather History for KCZZ - May, 2019

Change the Weather History Date:

Tuesday, May 14, 2019

  Actual Average Record
Temperature  
Mean Temperature 65 °F 61 °F  
Max Temperature 82 °F 79 °F 94 °F (1997)
Min Temperature 47 °F 42 °F 31 °F (1963)
Degree Days  
Heating Degree Days 0 5  
Month to date heating degree days 111 85  
Since 1 July heating degree days 2829 2853  
Cooling Degree Days 0 1  
Month to date cooling degree days 0 9  
Year to date cooling degree days 2 12  
Growing Degree Days 14 (Base 50)    
Moisture  
Dew Point 47 °F    
Average Humidity 59    
Maximum Humidity 93    
Minimum Humidity 25    
Precipitation  
Precipitation 0.00 in 0.01 in 0.18 in (1951)
Month to date precipitation 0.52 0.13  
Year to date precipitation 11.71 9.99  
Sea Level Pressure  
Sea Level Pressure 29.91 in    
Wind  
Wind Speed 7 mph (West)    
Max Wind Speed 20 mph    
Max Gust Speed 26 mph    
T = Trace of Precipitation, MM = Missing Value Source: NWS Daily Summary

Daily Weather History Graph

Daily Weather History Graph

Search for Another Location

Airport or City:

Astronomy

May. 14, 2019 Rise Set
Actual Time 5:48 AM PDT 7:36 PM PDT
Civil Twilight 5:21 AM PDT 8:03 PM PDT
Nautical Twilight 4:48 AM PDT 8:36 PM PDT
Astronomical Twilight 4:13 AM PDT 9:11 PM PDT
Moon 3:22 PM PDT (5/14) 3:22 AM PDT (5/14)
Length of Visible Light 14h 42m
Length of Day
13h 48m
Waxing Gibbous, 80% of the Moon is Illuminated
May 14
Waxing Gibbous
May 18
Full
May 26
Last Quarter
Jun 3
New
Jun 9
First Quarter

Hourly Weather History & Observations

Time (PDT) Temp. Dew Point Humidity Pressure Visibility Wind Dir Wind Speed Gust Speed Precip Events Conditions
12:52 AM 51.1 °F 48.9 °F 92% 29.94 in - NE 6.9 mph - N/A   Unknown
1:52 AM 51.1 °F 48.9 °F 92% 29.92 in - NE 4.6 mph - N/A   Unknown
2:52 AM 48.9 °F 46.9 °F 93% 29.92 in - NE 6.9 mph - N/A   Unknown
3:52 AM 48.9 °F 46.0 °F 90% 29.92 in - NE 4.6 mph - N/A   Unknown
4:52 AM 48.0 °F 46.0 °F 93% 29.92 in - NNE 4.6 mph - N/A   Unknown
5:52 AM 48.0 °F 45.0 °F 89% 29.93 in - NE 5.8 mph - N/A   Unknown
6:52 AM 52.0 °F 46.9 °F 83% 29.94 in - NE 4.6 mph - N/A   Unknown
7:52 AM 61.0 °F 51.1 °F 70% 29.94 in - ENE 3.5 mph - N/A   Unknown
8:52 AM 71.1 °F 46.0 °F 41% 29.93 in - Calm Calm - N/A   Unknown
9:52 AM 75.0 °F 41.0 °F 29% 29.93 in - SW 4.6 mph - N/A   Unknown
10:52 AM 80.1 °F 37.9 °F 22% 29.92 in - SSW 8.1 mph - N/A   Unknown
11:52 AM 80.1 °F 41.0 °F 25% 29.92 in - SW 10.4 mph - N/A   Unknown
12:52 PM 81.0 °F 46.0 °F 29% 29.91 in - West 10.4 mph 23.0 mph N/A   Unknown
1:52 PM 81.0 °F 44.1 °F 27% 29.90 in - West 12.7 mph - N/A   Unknown
2:52 PM 81.0 °F 46.9 °F 30% 29.88 in - WSW 11.5 mph - N/A   Unknown
3:52 PM 79.0 °F 48.0 °F 34% 29.88 in - WSW 15.0 mph - N/A   Unknown
4:52 PM 78.1 °F 46.9 °F 33% 29.88 in - West 8.1 mph - N/A   Unknown
5:52 PM 75.9 °F 51.1 °F 42% 29.87 in - SW 10.4 mph - N/A   Unknown
6:52 PM 69.1 °F 53.1 °F 57% 29.87 in - SSW 8.1 mph - N/A   Unknown
7:52 PM 66.0 °F 52.0 °F 60% 29.88 in - SW 8.1 mph - N/A   Unknown
8:52 PM 61.0 °F 52.0 °F 72% 29.88 in - SSW 3.5 mph - N/A   Unknown
9:52 PM 57.9 °F 51.1 °F 78% 29.91 in - Calm Calm - N/A   Unknown
10:52 PM 54.0 °F 48.9 °F 83% 29.90 in - NE 4.6 mph - N/A   Unknown
11:52 PM 52.0 °F 48.0 °F 86% 29.90 in - NE 5.8 mph - N/A   Unknown